Regional Weather Roundup
Issued by NWS Burlington, VT

Home | Current Version | Previous Version | Text Only | Print | Product List | Glossary On
Versions: 1 2 3 4 5 6 7 8 9 10 11 12 13 14 15 16 17 18 19 20 21 22 23 24 25 26 27 28 29 30 31 32 33 34 35 36 37 38 39 40 41 42 43 44 45 46 47 48 49 50
000
ASUS41 KBTV 070230
RWRBTV
VERMONT REGIONAL WEATHER ROUNDUP
NATIONAL WEATHER SERVICE BURLINGTON VT
1000 PM EDT WED MAY 06 2015

NOTE: "FAIR" INDICATES FEW OR NO CLOUDS BELOW 12,000 FEET WITH NO
SIGNIFICANT WEATHER AND/OR OBSTRUCTIONS TO VISIBILITY.

* THESE REPORTS ARE NOT UNDER NWS QUALITY CONTROL AND/OR DO NOT
  REPORT WEATHER SUCH AS PRECIPITATION AND FOG.

VTZ001>019-070300-
_____VERMONT_____


CITY           SKY/WX    TMP DP  RH WIND       PRES   REMARKS
BURLINGTON     CLEAR     60  37  42 CALM      30.17R
MONTPELIER     CLEAR     54  33  45 CALM      30.22S
MORRISVILLE    CLEAR     52  39  61 CALM      30.19R
ST. JOHNSBURY*   N/A     58  38  47 MISG      30.16R
LYNDONVILLE*     N/A     61  27  27 W5        30.19S
MIDDLEBURY*      N/A     59  34  39 SE5       30.17S
RUTLAND*       CLEAR     57  32  38 SE7       30.19R
SPRINGFIELD    CLEAR     53  38  56 W3        30.19R
HIGHGATE*        N/A     60  37  41 CALM      30.15S
NEWPORT*         N/A     58  34  41 SW5       30.17S
BENNINGTON     CLEAR     53  35  50 SE6       30.20R
GALLUP MILLS*    N/A     45 N/A N/A MISG        N/A
MT. MANSFIELD*   N/A     52 N/A N/A CALM        N/A

_____LAKE CHAMPLAIN_____


CITY           SKY/WX    TMP DP  RH WIND       PRES   REMARKS
BURTON ISLAND*   N/A     64  36  34 S7          N/A
COLCHESTER RF*   N/A     64  32  29 W10         N/A
DIAMOND ISL*     N/A     61  43  51 E1          N/A

$$

NYZ007-026>031-035-052-083-070300-
_____NORTHERN NEW YORK_____


CITY           SKY/WX    TMP DP  RH WIND       PRES   REMARKS
PLATTSBURGH    CLEAR     57  39  51 SW3       30.16R
SARANAC LAKE   CLEAR     45  35  68 CALM      30.20R
MASSENA        CLEAR     55  40  56 CALM      30.18R
OGDENSBURG*    CLEAR     55  43  62 SW3       30.18R
POTSDAM*       CLEAR     57  43  58 CALM      30.18S
STARK FALLS*     N/A     55 N/A N/A SE6         N/A
WATERTOWN      CLEAR     46  41  82 SE3       30.20R
FT DRUM        CLEAR     58  38  48 SW3       30.20R
ALBANY         PTCLDY    65  37  35 S7        30.19R
GLENS FALLS    CLEAR     56  40  55 CALM      30.17R

$$
NHZ002-005-011-070300-
_____NEW HAMPSHIRE_____


CITY           SKY/WX    TMP DP  RH WIND       PRES   REMARKS
LEBANON        CLEAR     51  39  63 CALM      30.17R
KEENE          CLEAR     55  37  50 CALM      30.19S
MT WASHINGTON  PTCLDY    37  27  65 NW45        N/A
PLYMOUTH         N/A     50  46  83 CALM      30.17R
WHITEFIELD     CLEAR     48  37  65 CALM      30.17R

$$

_____REGIONAL QUEBEC LOCATIONS_____


CITY           SKY/WX    TMP DP  RH WIND       PRES   REMARKS
MONTREAL       PTCLDY    63  37  39 W9        30.13R
QUEBEC CITY    PTCLDY    55  37  50 W7        30.10R
SHERBROOKE     CLEAR     57  34  41 W5        30.14R

_____REGIONAL ONTARIO LOCATIONS_____


CITY           SKY/WX    TMP DP  RH WIND       PRES   REMARKS
OTTAWA         PTCLDY    63  37  39 S7        30.16S

______KEY______
VSB  - VISIBILITY IN MILES
WCI  - WIND CHILL INDEX
HX   - HEAT INDEX
$$
NNNN


USA.gov is the U.S. government's official web portal to all federal, state and local government web resources and services.